When you browse on this site, cookies collect data to enhance your experience and personalize the content and advertising you see.
Visit our Privacy Policy to learn more. By continuing to use the site, you agree to this use of cookies and data.
  • In Hungary
  • List of Countries
  • For 7 days
  • Water Temperature
  • Weather Map
  • News
  • Weather Widgets
  • user-avatar
    Login

    Hourly Weather Cobija

    Today, 30 May, Saturday

    Time Temperature Precipitation Wind Pressure Humidity
    00:00 +20°C° 0 mm 0 mps 739 mmHg 71%
    01:00 +19°C° 0 mm 0 mps 739 mmHg 72%
    02:00 +19°C° 0 mm 0 mps 739 mmHg 73%
    03:00 +19°C° 0 mm 0 mps 739 mmHg 74%
    04:00 +19°C° 0 mm 0 mps 739 mmHg 75%
    05:00 +19°C° 0 mm 0 mps 739 mmHg 74%
    06:00 +20°C° 0 mm 0 mps 740 mmHg 73%
    07:00 +21°C° 0 mm 0 mps 740 mmHg 72%
    08:00 +24°C° 0 mm 0 mps 740 mmHg 63%
    09:00 +27°C° 0 mm 0 mps 741 mmHg 54%
    10:00 +30°C° 0 mm 0 mps 741 mmHg 45%
    11:00 +31°C° 0 mm 0 mps 740 mmHg 43%
    12:00 +32°C° 0 mm 0 mps 740 mmHg 41%
    13:00 +34°C° 0 mm 1 mps 739 mmHg 39%
    14:00 +32°C° 0 mm 0 mps 738 mmHg 43%
    15:00 +31°C° 0 mm 0 mps 737 mmHg 47%
    16:00 +31°C° 0 mm 0 mps 737 mmHg 51%
    17:00 +28°C° 0 mm 0 mps 737 mmHg 56%
    18:00 +26°C° 0 mm 0 mps 737 mmHg 62%
    19:00 +24°C° 0 mm 0 mps 738 mmHg 67%
    20:00 +23°C° 0 mm 0 mps 738 mmHg 71%
    21:00 +23°C° 0 mm 0 mps 738 mmHg 74%
    22:00 +23°C° 0 mm 0 mps 739 mmHg 77%
    23:00 +22°C° 0 mm 0 mps 739 mmHg 79%

    Tomorrow, 31 May, Sunday

    Time Temperature Precipitation Wind Pressure Humidity
    00:00 +22°C° 0 mm 0 mps 739 mmHg 82%
    01:00 +22°C° 0 mm 0 mps 739 mmHg 84%
    02:00 +22°C° 0 mm 0 mps 739 mmHg 86%
    03:00 +21°C° 0 mm 0 mps 739 mmHg 87%
    04:00 +21°C° 0 mm 0 mps 739 mmHg 88%
    05:00 +22°C° 0 mm 0 mps 739 mmHg 86%
    06:00 +22°C° 0 mm 0 mps 740 mmHg 84%
    07:00 +23°C° 0 mm 0 mps 740 mmHg 82%
    08:00 +26°C° 0.1 mm 0 mps 740 mmHg 74%
    09:00 +28°C° 0.1 mm 0 mps 741 mmHg 66%
    10:00 +31°C° 0.1 mm 0 mps 741 mmHg 58%
    11:00 +31°C° 0.3 mm 0 mps 740 mmHg 55%
    12:00 +32°C° 0.3 mm 0 mps 739 mmHg 53%
    13:00 +34°C° 0.3 mm 1 mps 738 mmHg 50%
    14:00 +33°C° 0 mm 1 mps 738 mmHg 54%
    15:00 +32°C° 0 mm 1 mps 737 mmHg 58%
    16:00 +30°C° 0 mm 0 mps 737 mmHg 61%
    17:00 +30°C° 0 mm 1 mps 737 mmHg 68%
    18:00 +28°C° 0 mm 1 mps 738 mmHg 75%
    19:00 +26°C° 0 mm 1 mps 738 mmHg 82%
    20:00 +26°C° 0 mm 1 mps 739 mmHg 83%
    21:00 +24°C° 0 mm 0 mps 739 mmHg 84%
    22:00 +23°C° 0 mm 0 mps 740 mmHg 85%
    23:00 +23°C° 0 mm 0 mps 740 mmHg 85%

    Day after tomorrow, 1 June, Monday

    Time Temperature Precipitation Wind Pressure Humidity
    00:00 +23°C° 0 mm 0 mps 739 mmHg 85%
    01:00 +23°C° 0 mm 0 mps 739 mmHg 85%
    02:00 +22°C° 0.1 mm 0 mps 739 mmHg 87%
    03:00 +22°C° 0.1 mm 0 mps 739 mmHg 89%
    04:00 +22°C° 0.1 mm 0 mps 739 mmHg 92%
    05:00 +22°C° 0.1 mm 0 mps 739 mmHg 90%
    06:00 +22°C° 0.1 mm 0 mps 740 mmHg 89%
    07:00 +23°C° 0.1 mm 0 mps 740 mmHg 88%
    08:00 +25°C° 0.1 mm 0 mps 740 mmHg 81%
    09:00 +26°C° 0.1 mm 0 mps 741 mmHg 75%
    10:00 +30°C° 0.1 mm 1 mps 741 mmHg 69%
    11:00 +30°C° 1 mm 1 mps 740 mmHg 74%
    12:00 +30°C° 1 mm 1 mps 739 mmHg 79%
    13:00 +30°C° 1 mm 1 mps 738 mmHg 85%
    14:00 +29°C° 0.8 mm 1 mps 738 mmHg 86%
    15:00 +29°C° 0.8 mm 1 mps 737 mmHg 87%
    16:00 +29°C° 0.8 mm 1 mps 737 mmHg 88%
    17:00 +27°C° 0.2 mm 1 mps 738 mmHg 91%
    18:00 +26°C° 0.2 mm 1 mps 738 mmHg 94%
    19:00 +25°C° 0.2 mm 1 mps 739 mmHg 96%
    20:00 +25°C° 0 mm 1 mps 739 mmHg 97%
    21:00 +22°C° 0 mm 0 mps 740 mmHg 97%
    22:00 +22°C° 0 mm 0 mps 740 mmHg 97%
    23:00 +22°C° 0.1 mm 0 mps 740 mmHg 97%

    2 June, Tuesday

    Time Temperature Precipitation Wind Pressure Humidity
    00:00 +22°C° 0.1 mm 0 mps 740 mmHg 97%
    01:00 +21°C° 0.1 mm 0 mps 739 mmHg 98%
    02:00 +21°C° 0 mm 0 mps 739 mmHg 98%
    03:00 +21°C° 0 mm 0 mps 739 mmHg 99%
    04:00 +21°C° 0 mm 0 mps 739 mmHg 99%
    05:00 +23°C° 0.1 mm 1 mps 740 mmHg 98%
    06:00 +23°C° 0.1 mm 1 mps 740 mmHg 98%
    07:00 +24°C° 0.1 mm 1 mps 741 mmHg 97%
    08:00 +24°C° 0.1 mm 1 mps 741 mmHg 95%
    09:00 +24°C° 0.1 mm 1 mps 741 mmHg 93%
    10:00 +25°C° 0.1 mm 1 mps 741 mmHg 91%
    11:00 +25°C° 0.1 mm 1 mps 741 mmHg 90%
    12:00 +25°C° 0.1 mm 1 mps 740 mmHg 89%
    13:00 +25°C° 0.1 mm 1 mps 739 mmHg 88%
    14:00 +25°C° 0 mm 1 mps 738 mmHg 86%
    15:00 +25°C° 0 mm 1 mps 738 mmHg 85%
    16:00 +25°C° 0 mm 1 mps 737 mmHg 83%
    17:00 +24°C° 0 mm 1 mps 738 mmHg 88%
    18:00 +23°C° 0 mm 1 mps 738 mmHg 92%
    19:00 +20°C° 0 mm 0 mps 738 mmHg 96%
    20:00 +20°C° 0 mm 0 mps 739 mmHg 96%
    21:00 +20°C° 0 mm 0 mps 739 mmHg 97%
    22:00 +20°C° 0 mm 0 mps 739 mmHg 97%
    23:00 +19°C° 0 mm 0 mps 739 mmHg 97%

    3 June, Wednesday

    Time Temperature Precipitation Wind Pressure Humidity
    00:00 +19°C° 0 mm 0 mps 739 mmHg 97%
    01:00 +19°C° 0 mm 0 mps 739 mmHg 98%
    02:00 +19°C° 0.4 mm 0 mps 739 mmHg 98%
    03:00 +19°C° 0.4 mm 0 mps 739 mmHg 98%
    04:00 +20°C° 0.4 mm 0 mps 738 mmHg 98%
    05:00 +20°C° 0.4 mm 0 mps 739 mmHg 98%
    06:00 +20°C° 0.4 mm 0 mps 739 mmHg 98%
    07:00 +20°C° 0.4 mm 0 mps 740 mmHg 99%
    08:00 +20°C° 0.4 mm 0 mps 740 mmHg 99%
    09:00 +20°C° 0.4 mm 0 mps 740 mmHg 98%
    10:00 +20°C° 0.4 mm 0 mps 741 mmHg 98%
    11:00 +20°C° 0.3 mm 0 mps 740 mmHg 97%
    12:00 +21°C° 0.3 mm 0 mps 739 mmHg 96%
    13:00 +21°C° 0.3 mm 0 mps 739 mmHg 95%
    14:00 +21°C° 0.1 mm 0 mps 738 mmHg 96%
    15:00 +21°C° 0.1 mm 0 mps 738 mmHg 96%
    16:00 +21°C° 0.1 mm 0 mps 737 mmHg 97%
    17:00 +20°C° 0 mm 0 mps 737 mmHg 98%
    18:00 +20°C° 0 mm 0 mps 738 mmHg 98%
    19:00 +20°C° 0 mm 0 mps 738 mmHg 99%
    20:00 +20°C° 0 mm 0 mps 738 mmHg 99%
    21:00 +20°C° 0 mm 0 mps 739 mmHg 99%
    22:00 +19°C° 0 mm 0 mps 739 mmHg 99%
    23:00 +20°C° 0 mm 0 mps 739 mmHg 99%

    4 June, Thursday

    Time Temperature Precipitation Wind Pressure Humidity
    00:00 +20°C° 0 mm 0 mps 739 mmHg 99%
    01:00 +20°C° 0 mm 0 mps 739 mmHg 99%
    02:00 +20°C° 0.1 mm 0 mps 738 mmHg 99%
    03:00 +20°C° 0.1 mm 0 mps 738 mmHg 99%
    04:00 +20°C° 0.1 mm 0 mps 738 mmHg 99%
    05:00 +20°C° 0.7 mm 0 mps 739 mmHg 99%
    06:00 +20°C° 0.7 mm 0 mps 739 mmHg 99%
    07:00 +20°C° 0.7 mm 0 mps 740 mmHg 99%
    08:00 +21°C° 0.7 mm 0 mps 740 mmHg 98%
    09:00 +22°C° 0.7 mm 0 mps 741 mmHg 97%
    10:00 +22°C° 0.7 mm 0 mps 741 mmHg 96%
    11:00 +22°C° 1.1 mm 0 mps 740 mmHg 97%
    12:00 +22°C° 1.1 mm 0 mps 740 mmHg 98%
    13:00 +22°C° 1.1 mm 0 mps 739 mmHg 99%
    14:00 +22°C° 0.3 mm 0 mps 739 mmHg 98%
    15:00 +22°C° 0.3 mm 0 mps 739 mmHg 98%
    16:00 +23°C° 0.3 mm 0 mps 738 mmHg 97%
    17:00 +22°C° 0 mm 0 mps 739 mmHg 98%
    18:00 +22°C° 0 mm 0 mps 739 mmHg 98%
    19:00 +21°C° 0 mm 0 mps 739 mmHg 99%
    20:00 +21°C° 0 mm 0 mps 740 mmHg 99%
    21:00 +21°C° 0 mm 0 mps 740 mmHg 99%
    22:00 +21°C° 0 mm 0 mps 740 mmHg 99%
    23:00 +21°C° 0 mm 0 mps 740 mmHg 99%
    Show more